Location: �mondeville
(49.4591°N, 1.3431°W)
Time: 17:34:15
(UTC+00:00)

Cosmos 1943 - Pass Details

Date: 22 October 2019
Orbit: 834 x 849 km, 71.0° (Epoch: 14 November)

Event Time Altitude Azimuth Distance (km) Brightness Sun altitude
Rises 05:37:13 0° 187° (S) 3,400 6.3 -10.4°
Reaches altitude 10° 05:39:44 10° 182° (S) 2,469 5.7 -10.0°
Maximum altitude 05:45:08 48° 110° (ESE) 1,106 4.4 -9.1°
Drops below altitude 10° 05:50:34 10° 38° (NE) 2,481 6.1 -8.2°
Sets 05:53:06 0° 33° (NNE) 3,419 6.7 -7.8°
